[[{"header":{"parameterUnit":"m.s-1","parameterCategory":1,"la1":30.2991,"la2":30.254,"lo1":-89.0895,"lo2":-89.0444,"dy":0.0017,"dx":0.0017,"nx":28,"ny":28,"refTime":"2023-09-06T21:00:00:Z","depth":0,"parameterNumber":2,"parameterNumberName":"U-component_of_WINDS"},"data":[0,0,0,0,0,0,0,0,0,0,0,0,0,0,0,0,0,0,0,0,0,0,0,0,0,0,0,0,0,0,0,0,0,0,0,0,0,0,0,0,0,0,0,0,0,0,0,0,0,0,0,0,0,0,0,0,0,0,4.1581,4.1582,0,4.1666,4.1667,4.1668,4.157,4.1566,4.1562,4.1559,4.1647,4.1652,4.1658,0,0,0,0,0,0,0,0,0,0,0,0,0,4.1336,4.1341,4.1581,4.1582,4.1583,4.1666,4.1667,4.1668,4.157,4.1566,4.1561,4.1557,4.1645,4.1651,4.1658,0,0,0,0,0,0,0,0,0,0,0,0,0,4.1434,4.1343,4.1581,4.1544,4.1542,4.1665,4.1667,4.1668,4.1571,4.1566,4.156,4.1555,4.1642,4.1651,4.1659,4.1823,0,0,4.1686,4.1689,0,0,0,0,0,0,0,0,4.1428,4.1443,4.1549,4.1547,4.1545,4.1601,4.1612,4.172,4.1573,4.156,4.1559,4.1552,4.1636,4.1645,4.1673,4.1827,4.1831,4.1686,4.1692,4.1695,4.1698,0,0,0,0,0,0,0,4.1422,4.1439,4.1615,4.155,4.1548,4.1524,4.1532,4.1632,4.1628,4.1561,4.1554,4.1565,4.1634,4.1665,4.1674,4.1832,4.1686,4.1694,4.1699,4.1703,4.2125,4.213,0,0,0,0,0,0,4.1419,4.1434,4.1612,4.1617,4.1472,4.1533,4.1542,4.1589,4.1627,4.1627,4.157,4.156,4.1653,4.1664,4.1677,4.187,4.1695,4.1703,4.1708,4.2119,4.2126,4.2132,0,0,0,0,0,0,4.1414,4.1436,4.1608,4.1524,4.1544,4.1543,4.1597,4.1593,4.1624,4.1633,4.1632,4.1602,4.1649,4.1665,4.1787,4.1872,4.1707,4.1715,4.2111,4.2121,4.2129,4.226,0,0,0,0,0,0,4.1408,4.1435,4.1497,4.1526,4.1549,4.1718,4.1602,4.1599,4.1639,4.1628,4.1663,4.1664,4.1646,4.1775,4.1796,4.1881,4.1722,4.2104,4.2116,4.2126,4.2248,4.2272,4.2293,0,0,0,0,0,4.1399,4.153,4.15,4.1522,4.1626,4.1723,4.1736,4.1712,4.1646,4.1709,4.1715,4.1663,4.186,4.1788,4.1811,4.19,4.2098,4.2112,4.2125,4.2238,4.2267,4.2292,0,0,0,0,0,0,4.1512,4.1534,4.15,4.1645,4.1683,4.1706,4.1784,4.1744,4.1801,4.1788,4.1756,4.1765,4.1895,4.191,4.183,4.206,4.1968,4.1987,4.2046,4.2074,4.2096,4.209,4.1729,0,0,0,0,0,4.1553,4.163,4.1645,4.1771,4.1791,4.1785,4.1826,4.1804,4.1842,4.1857,4.1872,4.1911,4.1981,4.2029,4.2094,4.225,4.2256,4.2322,4.2345,4.2363,4.238,4.2463,4.2492,4.2177,4.2177,4.2176,0,0,4.164,4.1661,4.1712,4.1794,4.182,4.19,4.1799,4.1887,4.1946,4.1871,4.1987,4.2,4.2041,4.2181,4.2243,4.2197,4.2468,4.2381,4.2395,4.2402,4.248,4.2509,4.2536,4.2186,4.2184,4.2183,0,0,4.1839,4.1863,4.197,4.1999,4.204,4.2035,4.2061,4.2091,4.2096,4.2212,4.2157,4.2227,4.2349,4.2381,4.2413,4.2624,4.2578,4.2646,4.2764,4.2845,4.287,4.2892,4.2967,4.2994,4.2663,4.2663,4.2663,0,4.1941,4.2059,4.2031,4.2123,4.2161,4.2096,4.2205,4.2234,4.2295,4.2323,4.2271,4.2423,4.2446,4.2592,4.2643,4.2672,4.27,4.2642,4.2869,4.289,4.291,4.2981,4.301,4.2671,4.267,4.2669,4.2669,0,4.2183,4.2266,4.2348,4.2408,4.2455,4.2555,4.2542,4.2593,4.2568,4.2568,4.2687,4.2713,4.2782,4.2815,4.2791,4.2958,4.2928,4.2874,4.278,4.2949,4.3015,4.3042,4.2683,4.268,4.2677,4.2675,0,0,4.2455,4.2498,4.2528,4.2554,4.2595,4.2659,4.2757,4.2824,4.2868,4.2913,4.2994,4.3099,4.3048,4.3084,4.3063,4.3135,4.33,4.3071,4.3071,4.3112,4.3485,4.3526,4.3558,4.327,4.3276,4.328,4.3481,0,4.2653,4.2822,4.2799,4.2961,4.3036,4.2976,4.3061,4.3096,4.3099,4.3164,4.3167,4.3242,4.3169,4.3191,4.3259,4.3266,4.3374,4.3251,4.3345,4.3349,4.3336,4.3592,4.3636,4.3825,4.3507,4.3511,4.3515,0,4.2908,4.2961,4.313,4.3159,4.319,4.3267,4.3326,4.339,4.3428,4.3425,4.3466,4.3432,4.353,4.3436,4.357,4.3487,4.3524,4.3533,4.354,4.3547,4.3441,4.3606,4.3885,4.3913,4.3555,4.3552,4.3549,0,4.3088,4.3202,4.3318,4.3342,4.3379,4.3435,4.3453,4.3485,4.3527,4.358,4.3607,4.3671,4.3705,4.3756,4.374,4.3673,4.3878,4.3782,4.3878,4.3879,4.3923,4.3921,4.4211,4.3949,4.3949,4.3948,4.3948,0,4.3312,4.3418,4.3399,4.3471,4.3587,4.356,4.3677,4.3688,4.3717,4.379,4.3742,4.3811,4.3786,4.3854,4.3843,4.3956,4.3972,4.3972,4.3968,4.3976,4.3976,4.4,4.3986,4.3956,4.3954,4.3953,4.3951,0,4.3533,4.3525,4.3647,4.3672,4.3681,4.3766,4.3787,4.3854,4.3853,4.3946,4.3966,4.3965,4.4043,4.4032,4.4119,4.4111,4.4251,4.4231,4.4238,4.4233,4.433,4.4321,4.4645,4.4686,4.4398,4.4401,4.4403,0,4.3676,4.3756,4.3789,4.3834,4.3856,4.3929,4.3971,4.3948,4.3994,4.4044,4.4105,4.4178,4.4235,4.4361,4.4369,4.4435,4.4415,4.4525,4.4425,4.4431,4.4416,4.4411,4.4419,4.4544,4.4548,4.455,4.4552,0,4.3931,4.3923,4.3985,4.4047,4.4099,4.4147,4.419,4.4229,4.421,4.4265,4.4343,4.4387,4.4475,4.4548,4.461,4.4628,4.4588,4.4584,4.4609,4.4618,4.4619,4.4619,4.4291,4.4576,4.4574,4.4572,4.4571,4.457,4.4117,4.4185,4.4219,4.429,4.432,4.4361,4.4425,4.4432,4.4497,4.4566,4.4549,4.4637,4.4673,4.4752,4.4778,4.4847,4.4806,4.4844,4.4853,4.4862,4.4873,4.4609,4.4858,4.4857,4.4857,4.4856,4.4855,0,4.4368,4.4387,4.4453,4.4514,4.4571,4.4527,4.4572,4.4622,4.4701,4.4737,4.4794,4.4884,4.4955,4.4968,4.5035,4.5088,4.5071,4.5106,4.5102,4.5107,4.4906,4.4876,4.5119,4.5119,4.5119,4.5119,4.5119,4.5118,4.4506,4.4618,4.4615,4.4741,4.4759,4.4845,4.4875,4.4912,4.4941,4.5044,4.5102,4.511,4.5137,4.5206,4.5269,4.5271,4.5297,4.534,4.5335,4.5147,4.5121,4.5096,4.5068,4.5346,4.5347,4.553,4.5531,4.5533]},{"header":{"parameterUnit":"m.s-1","parameterCategory":1,"la1":30.2991,"la2":30.254,"lo1":-89.0895,"lo2":-89.0444,"dy":0.0017,"dx":0.0017,"nx":28,"ny":28,"refTime":"2023-09-06T21:00:00:Z","depth":0,"parameterNumber":3,"parameterNumberName":"V-component_of_WINDS"},"data":[0,0,0,0,0,0,0,0,0,0,0,0,0,0,0,0,0,0,0,0,0,0,0,0,0,0,0,0,0,0,0,0,0,0,0,0,0,0,0,0,0,0,0,0,0,0,0,0,0,0,0,0,0,0,0,0,0,0,-1.5272,-1.5273,0,-1.5381,-1.5383,-1.5384,-1.5472,-1.5473,-1.5474,-1.5475,-1.5584,-1.5586,-1.5588,0,0,0,0,0,0,0,0,0,0,0,0,0,-1.5135,-1.5137,-1.5272,-1.5273,-1.5274,-1.5381,-1.5383,-1.5384,-1.5472,-1.5473,-1.5474,-1.5475,-1.5584,-1.5586,-1.5589,0,0,0,0,0,0,0,0,0,0,0,0,0,-1.5215,-1.5138,-1.5271,-1.5331,-1.5338,-1.5381,-1.5383,-1.5385,-1.5472,-1.5473,-1.5475,-1.5476,-1.5583,-1.5586,-1.5589,-1.5581,0,0,-1.5598,-1.56,0,0,0,0,0,0,0,0,-1.521,-1.5219,-1.5321,-1.5327,-1.5334,-1.5415,-1.5375,-1.545,-1.5471,-1.5421,-1.5475,-1.5476,-1.5527,-1.5534,-1.5552,-1.5586,-1.5591,-1.5599,-1.5601,-1.5602,-1.5603,0,0,0,0,0,0,0,-1.5204,-1.5215,-1.5315,-1.5322,-1.5331,-1.5352,-1.5364,-1.539,-1.5465,-1.5425,-1.5432,-1.5444,-1.553,-1.5549,-1.5555,-1.5592,-1.5599,-1.5601,-1.5603,-1.5605,-1.5624,-1.5623,0,0,0,0,0,0,-1.519,-1.521,-1.5312,-1.5318,-1.5274,-1.5353,-1.5367,-1.5387,-1.5465,-1.5478,-1.5443,-1.5448,-1.5543,-1.5551,-1.5559,-1.5554,-1.5602,-1.5605,-1.5607,-1.5625,-1.5624,-1.5622,0,0,0,0,0,0,-1.5187,-1.5198,-1.5307,-1.5266,-1.5282,-1.5354,-1.5376,-1.5389,-1.5407,-1.5478,-1.5491,-1.5448,-1.5544,-1.5555,-1.5575,-1.5559,-1.5606,-1.5609,-1.5627,-1.5625,-1.5623,-1.5543,0,0,0,0,0,0,-1.5182,-1.5197,-1.5195,-1.5265,-1.5283,-1.5321,-1.5375,-1.539,-1.5413,-1.542,-1.5486,-1.5498,-1.5546,-1.557,-1.5578,-1.5564,-1.5611,-1.5629,-1.5626,-1.5624,-1.5547,-1.5539,-1.5531,0,0,0,0,0,-1.5177,-1.5168,-1.5194,-1.5206,-1.5283,-1.532,-1.533,-1.5387,-1.5411,-1.5409,-1.5455,-1.5496,-1.556,-1.5571,-1.5581,-1.5568,-1.563,-1.5627,-1.5624,-1.5551,-1.554,-1.5531,0,0,0,0,0,0,-1.5093,-1.5178,-1.5209,-1.5222,-1.5263,-1.5335,-1.5335,-1.5374,-1.5408,-1.5414,-1.5481,-1.5495,-1.5507,-1.554,-1.5551,-1.5563,-1.56,-1.5599,-1.5541,-1.5532,-1.5524,-1.5515,-1.5614,0,0,0,0,0,-1.5076,-1.51,-1.5173,-1.5177,-1.5197,-1.5262,-1.528,-1.532,-1.5365,-1.5383,-1.543,-1.5471,-1.55,-1.5518,-1.5549,-1.5553,-1.5568,-1.5549,-1.5541,-1.5534,-1.5531,-1.5534,-1.5526,-1.5612,-1.5612,-1.5612,0,0,-1.504,-1.509,-1.5101,-1.5161,-1.5198,-1.522,-1.5276,-1.5297,-1.5314,-1.5386,-1.5407,-1.5443,-1.5494,-1.5505,-1.5512,-1.5533,-1.5511,-1.553,-1.5524,-1.5525,-1.553,-1.5522,-1.5514,-1.561,-1.5611,-1.5611,0,0,-1.4987,-1.5028,-1.5036,-1.5071,-1.5127,-1.517,-1.5172,-1.5238,-1.5264,-1.5287,-1.5341,-1.5362,-1.5411,-1.5445,-1.5468,-1.5427,-1.5466,-1.5436,-1.5392,-1.5394,-1.5387,-1.5381,-1.5365,-1.5359,-1.5433,-1.5433,-1.5433,0,-1.4936,-1.4973,-1.5034,-1.5052,-1.5077,-1.5144,-1.5151,-1.5182,-1.5244,-1.5259,-1.5281,-1.5344,-1.5383,-1.5402,-1.5392,-1.541,-1.5412,-1.5428,-1.5383,-1.5378,-1.5374,-1.5359,-1.5353,-1.5429,-1.5429,-1.543,-1.543,0,-1.4906,-1.4931,-1.493,-1.4989,-1.5013,-1.5026,-1.5088,-1.5105,-1.5143,-1.5183,-1.5205,-1.5254,-1.5295,-1.5304,-1.534,-1.5328,-1.5338,-1.5371,-1.5409,-1.536,-1.5347,-1.5342,-1.5423,-1.5424,-1.5426,-1.5427,0,0,-1.4802,-1.4895,-1.4893,-1.492,-1.4986,-1.5005,-1.502,-1.5062,-1.5074,-1.5115,-1.5128,-1.5168,-1.5199,-1.5225,-1.5266,-1.5268,-1.523,-1.5301,-1.5303,-1.5284,-1.5218,-1.5191,-1.5184,-1.5257,-1.5257,-1.5256,-1.5213,0,-1.4758,-1.479,-1.4845,-1.4858,-1.488,-1.4944,-1.4957,-1.4998,-1.5036,-1.506,-1.5103,-1.5129,-1.5169,-1.5185,-1.519,-1.5234,-1.5218,-1.5238,-1.5268,-1.5269,-1.5252,-1.5177,-1.515,-1.5107,-1.5208,-1.5208,-1.5207,0,-1.4711,-1.4748,-1.4763,-1.4826,-1.4838,-1.4848,-1.489,-1.4913,-1.496,-1.4988,-1.5017,-1.5062,-1.508,-1.5116,-1.514,-1.5153,-1.5169,-1.5192,-1.5192,-1.5195,-1.5233,-1.5177,-1.5095,-1.5087,-1.52,-1.5201,-1.5201,0,-1.4631,-1.4685,-1.4701,-1.4722,-1.4796,-1.4802,-1.4833,-1.4882,-1.4903,-1.4939,-1.4953,-1.4991,-1.5011,-1.5039,-1.5092,-1.5113,-1.511,-1.5151,-1.5132,-1.513,-1.5127,-1.5126,-1.5044,-1.514,-1.514,-1.514,-1.514,0,-1.4575,-1.4581,-1.4665,-1.4675,-1.4683,-1.4747,-1.4753,-1.479,-1.4833,-1.485,-1.4908,-1.4922,-1.4993,-1.5015,-1.5057,-1.507,-1.5079,-1.5101,-1.5112,-1.5095,-1.5092,-1.5105,-1.5108,-1.5139,-1.5139,-1.5139,-1.514,0,-1.4487,-1.4544,-1.4565,-1.4634,-1.4651,-1.4654,-1.4712,-1.4723,-1.4765,-1.4786,-1.4794,-1.486,-1.4889,-1.4945,-1.499,-1.5018,-1.5021,-1.5041,-1.5005,-1.5011,-1.4989,-1.4989,-1.4911,-1.4903,-1.5005,-1.5004,-1.5003,0,-1.4446,-1.4453,-1.4522,-1.4538,-1.4567,-1.4592,-1.4613,-1.4676,-1.4696,-1.475,-1.4754,-1.4788,-1.4818,-1.4861,-1.4912,-1.4946,-1.4966,-1.4936,-1.4972,-1.4954,-1.4963,-1.4962,-1.4962,-1.4928,-1.4926,-1.4925,-1.4924,0,-1.4368,-1.4396,-1.4425,-1.4464,-1.4488,-1.4521,-1.4558,-1.4567,-1.4638,-1.4658,-1.4688,-1.4712,-1.4757,-1.4789,-1.4831,-1.4862,-1.4904,-1.4913,-1.491,-1.4892,-1.487,-1.4879,-1.4981,-1.4914,-1.4915,-1.4916,-1.4916,-1.4917,-1.4301,-1.4309,-1.4359,-1.4389,-1.4424,-1.4456,-1.4469,-1.4513,-1.454,-1.4582,-1.4618,-1.4645,-1.4691,-1.4752,-1.478,-1.4802,-1.4822,-1.4818,-1.4817,-1.4815,-1.4807,-1.4868,-1.481,-1.481,-1.481,-1.4811,-1.4811,0,-1.4224,-1.426,-1.4287,-1.4336,-1.4359,-1.4398,-1.4441,-1.4457,-1.4481,-1.4521,-1.4549,-1.4584,-1.4615,-1.4668,-1.4704,-1.471,-1.473,-1.4717,-1.4717,-1.4723,-1.4787,-1.4785,-1.4701,-1.4701,-1.4701,-1.4701,-1.4701,-1.4701,-1.4187,-1.4202,-1.4235,-1.4267,-1.4303,-1.433,-1.435,-1.438,-1.4412,-1.4448,-1.4475,-1.451,-1.4555,-1.4594,-1.4624,-1.4639,-1.4648,-1.4629,-1.4649,-1.4708,-1.4718,-1.4728,-1.4727,-1.4631,-1.4631,-1.4583,-1.4582,-1.4582]}]]